Location: Bonningues
(50.7927°N, 2.0150°E)
Time: 00:07:12
(UTC+00:00)

JB-3 - Pass Details

Date: 08 August 2020
Orbit: 527 x 588 km, 97.3° (Epoch: 23 September)

Event Time Altitude Azimuth Distance (km) Brightness Sun altitude
Rises 22:14:41 0° 12° (NNE) 2,735 8.7 -19.7°
Reaches altitude 10° 22:16:48 10° 11° (N) 1,845 7.7 -19.9°
Maximum altitude 22:20:47 79° 285° (WNW) 578 4.4 -20.1°
Enters shadow 22:21:58 45° 207° (SSW) 776 4.7 -20.2°
